DW3735 Weather Reports


Display with metric or nautical units.
time (UTC)temp
F
wind
direction
speed
MPH
gust
MPH
rain 1hr
in
rain 24hr
in
rain mn
in
humidity
%
barometer
mb
20260906120517 55 0.0 2.0 0.00 0.03 0.00 95 1020.7
20260906115517 54 315 1.0 3.0 0.00 0.03 0.00 95 1020.6
20260906114517 54 315 1.0 3.0 0.00 0.03 0.00 95 1020.6
20260906113517 54 315 1.0 3.0 0.00 0.03 0.00 95 1020.6
20260906112516 54 315 1.0 2.0 0.00 0.03 0.00 95 1020.4
20260906111517 53 0.0 0.0 0.00 0.03 0.00 95 1020.2
20260906110516 53 0.0 0.0 0.00 0.03 0.00 95 1020.2
20260906105517 53 0.0 0.0 0.00 0.03 0.00 94 1020.1
20260906104516 53 0.0 0.0 0.00 0.03 0.00 94 1019.8
20260906103536 54 0.0 0.0 0.00 0.03 0.00 95 1019.6
20260906102618 54 0.0 0.0 0.00 0.03 0.00 95 1019.5
20260906101517 54 0.0 0.0 0.00 0.03 0.00 94 1019.5
20260906100517 54 0.0 0.0 0.00 0.03 0.00 94 1019.5
20260906095538 54 0.0 0.0 0.00 0.03 0.00 94 1019.4
20260906094517 54 0.0 0.0 0.00 0.03 0.00 95 1019.2
20260906093517 54 0.0 0.0 0.00 0.03 0.00 94 1019.2
20260906092517 55 0.0 0.0 0.00 0.03 0.00 94 1019.1
20260906091517 55 0.0 0.0 0.00 0.03 0.00 94 1018.9
20260906090517 55 0.0 0.0 0.00 0.03 0.00 94 1018.9
20260906085516 55 0.0 1.0 0.00 0.03 0.00 95 1018.9
20260906084516 55 0.0 2.0 0.00 0.03 0.00 92 1018.8
20260906083517 55 0.0 0.0 0.00 0.03 0.00 91 1018.7
20260906082518 55 0.0 0.0 0.00 0.03 0.00 91 1018.6
20260906081517 56 0.0 0.0 0.00 0.03 0.00 90 1018.6
20260906080517 56 0.0 0.0 0.00 0.03 0.00 90 1018.5
20260906075517 56 0.0 1.0 0.00 0.03 0.00 90 1018.4
20260906074517 56 0.0 0.0 0.00 0.03 0.00 90 1018.5
20260906073516 56 0.0 0.0 0.00 0.03 0.00 90 1018.4
20260906072516 57 0.0 0.0 0.00 0.03 0.00 89 1018.3
20260906071517 57 0.0 0.0 0.00 0.03 0.00 89 1018.2
20260906070516 57 0.0 0.0 0.00 0.03 0.00 89 1018.2
20260906065516 57 0.0 2.0 0.00 0.03 0.00 89 1018.2
20260906064517 57 0.0 0.0 0.00 0.03 0.00 89 1018.2
20260906063517 57 0.0 0.0 0.00 0.03 0.00 89 1018.0
20260906062517 57 0.0 0.0 0.00 0.03 0.00 89 1018.0
20260906061517 57 0.0 0.0 0.00 0.03 0.00 89 1017.9
20260906060517 58 0.0 0.0 0.00 0.03 0.00 89 1017.9
20260906055516 58 0.0 0.0 0.00 0.03 0.00 88 1017.9
20260906054517 59 0.0 1.0 0.00 0.03 0.00 88 1017.9
20260906053516 59 0.0 3.0 0.00 0.03 0.00 88 1017.9
20260906052518 59 68 1.0 2.0 0.00 0.03 0.00 87 1017.9
20260906051517 60 0.0 2.0 0.00 0.03 0.00 86 1017.9
20260906050517 61 68 2.0 5.0 0.00 0.03 0.00 86 1017.6
20260906045516 61 68 3.0 5.0 0.00 0.03 0.00 86 1017.7
20260906044537 60 68 5.0 8.0 0.00 0.03 0.00 87 1017.7
20260906043516 61 68 4.0 5.0 0.00 0.03 0.00 87 1017.6
20260906042517 61 68 3.0 5.0 0.00 0.03 0.00 87 1017.6
20260906041516 61 68 3.0 4.0 0.00 0.03 0.00 87 1017.6
20260906040517 61 68 3.0 5.0 0.00 0.03 0.00 86 1017.5
20260906035517 61 68 3.0 5.0 0.00 0.03 0.03 87 1017.4
20260906034517 62 68 3.0 5.0 0.00 0.03 0.03 86 1017.3
20260906033517 62 68 3.0 5.0 0.00 0.03 0.03 87 1017.2
20260906032517 62 68 4.0 7.0 0.00 0.03 0.03 87 1017.1
20260906031517 62 68 2.0 5.0 0.00 0.03 0.03 87 1017.1
20260906030517 63 68 5.0 8.0 0.00 0.03 0.03 87 1017.1
20260906024518 63 68 2.0 4.0 0.00 0.03 0.03 87 1016.9
20260906023517 63 68 3.0 5.0 0.00 0.03 0.03 88 1016.9
20260906022517 63 68 3.0 4.0 0.00 0.03 0.03 89 1016.9
20260906021517 63 0.0 1.0 0.00 0.03 0.03 88 1017.0
20260906020517 64 68 1.0 3.0 0.00 0.03 0.03 88 1016.8
20260906015537 63 68 2.0 3.0 0.00 0.03 0.03 88 1016.7
20260906014537 63 68 3.0 5.0 0.00 0.03 0.03 88 1016.5
20260906013517 63 68 2.0 4.0 0.00 0.03 0.03 92 1016.5
20260906012517 63 0.0 1.0 0.00 0.03 0.03 93 1016.3
20260906011517 63 0.0 1.0 0.00 0.03 0.03 91 1016.3
20260906010517 63 0.0 0.0 0.00 0.03 0.03 89 1016.2
20260906005517 63 0.0 0.0 0.00 0.03 0.03 90 1016.0
20260906004517 64 0.0 0.0 0.00 0.03 0.03 89 1015.9
20260906003517 64 0.0 2.0 0.02 0.03 0.03 89 1015.7
20260906002517 64 0.0 1.0 0.02 0.03 0.03 89 1015.6
20260906001517 65 0.0 1.0 0.02 0.03 0.03 88 1015.4
20260906000537 65 0.0 1.0 0.02 0.03 0.03 87 1015.4
20260905235517 66 68 1.0 3.0 0.02 0.03 0.03 88 1015.3
20260905234518 66 0 2.0 6.0 0.02 0.03 0.03 91 1015.4
20260905233517 66 0.0 0.0 0.00 0.02 0.02 89 1015.2
20260905232518 66 0.0 0.0 0.00 0.02 0.02 88 1015.2
20260905231517 66 0.0 0.0 0.00 0.02 0.02 88 1015.1
20260905230537 66 0.0 0.0 0.00 0.02 0.02 87 1015.1
20260905225517 67 0.0 0.0 0.00 0.02 0.02 86 1015.0
20260905224517 67 0.0 0.0 0.00 0.02 0.02 86 1015.1
20260905223537 67 0.0 0.0 0.00 0.02 0.02 85 1015.1
20260905222517 67 0.0 0.0 0.00 0.02 0.02 85 1015.1
20260905221517 67 0.0 0.0 0.00 0.02 0.02 85 1015.0
20260905220517 66 0.0 0.0 0.00 0.02 0.02 85 1014.9
20260905215516 66 0 1.0 1.0 0.00 0.02 0.02 87 1014.8
20260905214517 66 0.0 1.0 0.00 0.02 0.02 86 1014.7
20260905213517 66 0.0 1.0 0.00 0.02 0.02 85 1014.7
20260905212517 67 0.0 1.0 0.00 0.02 0.02 83 1014.5
20260905211537 68 68 1.0 4.0 0.01 0.02 0.02 82 1014.7
20260905210518 69 68 3.0 7.0 0.02 0.02 0.02 81 1014.7
20260905205517 68 68 1.0 3.0 0.02 0.02 0.02 82 1014.7
20260905204517 68 0.0 1.0 0.02 0.02 0.02 82 1014.6
20260905203537 68 0.0 1.0 0.02 0.02 0.02 83 1014.6
20260905202517 68 68 1.0 3.0 0.02 0.02 0.02 84 1014.6
20260905201517 69 68 3.0 5.0 0.01 0.01 0.01 81 1014.7
20260905201017 70 68 4.0 9.0 0.00 0.00 0.00 78 1014.7
20260905200017 71 315 1.0 3.0 0.00 0.00 0.00 76 1014.7
20260905195517 71 0.0 2.0 0.00 0.00 0.00 76 1014.7
20260905195037 71 315 2.0 6.0 0.00 0.00 0.00 75 1014.6
20260905194017 71 315 2.0 8.0 0.00 0.00 0.00 73 1014.5
20260905193017 70 315 1.0 8.0 0.00 0.00 0.00 74 1014.5
20260905192017 71 315 1.0 5.0 0.00 0.00 0.00 77 1014.5
20260905191017 70 315 2.0 6.0 0.00 0.00 0.00 78 1014.7
20260905190017 70 0.0 2.0 0.00 0.00 0.00 80 1014.5
20260905185037 70 338 1.0 4.0 0.00 0.00 0.00 80 1014.7
20260905184017 69 338 1.0 5.0 0.00 0.00 0.00 81 1014.7
20260905183017 69 293 1.0 3.0 0.00 0.00 0.00 83 1014.8
20260905182017 68 23 1.0 4.0 0.00 0.00 0.00 83 1014.9
20260905181017 68 0.0 2.0 0.00 0.00 0.00 83 1014.8
20260905180017 68 315 1.0 2.0 0.00 0.00 0.00 81 1014.8
20260905175017 68 338 2.0 4.0 0.00 0.00 0.00 80 1014.9
20260905174017 68 0.0 2.0 0.00 0.00 0.00 81 1014.9
20260905173038 68 0.0 2.0 0.00 0.00 0.00 82 1014.9
20260905172017 68 0.0 2.0 0.00 0.00 0.00 82 1014.8
20260905171017 67 0.0 2.0 0.00 0.00 0.00 84 1015.0
20260905170017 67 68 1.0 4.0 0.00 0.00 0.00 82 1015.0
20260905165017 67 68 1.0 2.0 0.00 0.00 0.00 83 1015.1
20260905164017 66 68 1.0 2.0 0.00 0.00 0.00 83 1015.0
20260905163017 66 68 2.0 4.0 0.00 0.00 0.00 83 1015.1
20260905162017 66 293 1.0 4.0 0.00 0.00 0.00 85 1015.2
20260905161017 66 0.0 1.0 0.00 0.00 0.00 86 1015.2
20260905160038 66 68 1.0 2.0 0.00 0.00 0.00 85 1015.3
20260905155018 66 68 1.0 2.0 0.00 0.00 0.00 85 1015.4
20260905154017 65 68 1.0 4.0 0.00 0.00 0.00 84 1015.4
20260905153017 65 68 2.0 4.0 0.00 0.00 0.00 86 1015.4
20260905152017 65 45 1.0 2.0 0.00 0.00 0.00 85 1015.4
20260905151017 64 45 1.0 4.0 0.00 0.00 0.00 87 1015.3
20260905150057 64 293 1.0 4.0 0.00 0.00 0.00 86 1015.2
20260905145017 64 68 2.0 4.0 0.00 0.00 0.00 87 1015.2
20260905144018 63 68 2.0 4.0 0.00 0.00 0.00 87 1015.2
20260905143037 63 68 1.0 4.0 0.00 0.00 0.00 87 1015.2
20260905142037 63 68 1.0 5.0 0.00 0.00 0.00 88 1015.1
20260905141017 63 68 2.0 5.0 0.00 0.00 0.00 88 1015.0
20260905140018 63 68 1.0 4.0 0.00 0.00 0.00 88 1015.1
20260905135017 63 68 2.0 5.0 0.00 0.00 0.00 88 1015.1
20260905134017 63 68 1.0 3.0 0.00 0.00 0.00 88 1015.0
20260905133017 63 68 2.0 5.0 0.00 0.00 0.00 89 1014.9
20260905132017 62 68 1.0 3.0 0.00 0.00 0.00 89 1014.9
20260905131017 62 68 2.0 3.0 0.00 0.00 0.00 90 1015.0
20260905130017 62 68 1.0 2.0 0.00 0.00 0.00 90 1014.9
20260905125017 62 68 1.0 3.0 0.00 0.00 0.00 91 1014.8
20260905124017 61 338 1.0 5.0 0.00 0.00 0.00 93 1014.8
20260905123017 61 0.0 2.0 0.00 0.00 0.00 94 1014.7
20260905122017 61 0.0 1.0 0.00 0.00 0.00 95 1014.7
20260905121017 60 0.0 3.0 0.00 0.00 0.00 95 1014.6